User: anonymous   Login
Location: Brookview Estates
(36.0476°N, 86.6931°W)
Time: 14:57:41
(UTC+00:00)
Language:

Cosmos 1953 - Orbit

View from above orbital plane
View from above orbital plane
View from above satellite
View from above satellite

Ground track
Ground track

The orbit data is extracted from the following two-line orbital elements,

1 19210U 88050A   21163.14230652  .00000294  00000-0  17992-4 0  9997
2 19210  82.5189  60.6195 0012469 334.8663  25.1956 15.06286802796930
Epoch (UTC): 12 June 2021 03:24:55
Eccentricity: 0.0012469
inclination: 82.5189°
perigee height: 539 km
apogee height: 556 km
right ascension of ascending node: 60.6195°
argument of perigee: 334.8663°
revolutions per day: 15.06286802
mean anomaly at epoch: 25.1956°
orbit number at epoch: 79693

The dashed part of the orbit path shows where the satellite is in the earth's shadow,  

DLR